Regional Weather Roundup
Issued by NWS

Home | Current Version | Previous Version | Text Only | Print | Product List | Glossary On
Versions: 1 2 3 4 5 6 7 8 9 10 11 12 13 14 15 16 17 18 19 20 21 22 23 24 25 26 27 28 29 30 31 32 33 34 35 36 37 38 39 40 41 42 43 44 45 46 47 48 49 50
000
ASUS44 KLIX 271310
RWRLA
LOUISIANA WEATHER ROUNDUP
NATIONAL WEATHER SERVICE NEW ORLEANS LA
700 AM CST THU NOV 27 2014

NOTE: "FAIR" INDICATES FEW OR NO CLOUDS BELOW 12,000 FEET WITH NO
      SIGNIFICANT WEATHER AND/OR OBSTRUCTIONS TO VISIBILITY.
      SKY/WX - SKY CONDITION AND SIGNIFICANT WEATHER.
      TMP - AIR TEMPERATURE.    DP   - DEWPOINT TEMPERATURE.
      RH  - RELATIVE HUMIDITY.  PRES - PRESSURE.
      HX  - HEAT INDEX.         WCI  - WIND CHILL INDEX.

*  THESE STATIONS ARE NOT NWS OR FAA STATIONS AND ARE NOT UNDER
   NWS QUALITY CONTROL.

LAZ040-048-061>063-065-066-069-271400-
SOUTHEAST LOUISIANA

CITY           SKY/WX    TMP DP  RH WIND       PRES   REMARKS
N.O. AUDUBON     N/A     53  41  64 MISG        N/A
N.O. INTL ARPT CLEAR     51  39  63 N9        30.40R
N.O. LAKEFRONT CLEAR     54  40  59 N17       30.40R
N.O. DOWNTOWN* FAIR      54  37  54 N5        30.40R
SLIDELL        CLEAR     44  38  79 N7        30.39R
BATON ROUGE    CLEAR     45  35  68 N3        30.42R
BOOTHVILLE     CLEAR     54  47  77 N8        30.39R
BELLE CHASSE   CLEAR     49  40  71 NW3       30.39R
BOGALUSA*        N/A     36  33  89 CALM      30.42R
NEW ROADS*     FAIR      41  36  81 N5        30.44R
GONZALES*      FAIR      44  41  89 NW6       30.42R
HAMMOND*       CLEAR     41  37  87 N3        30.44R
HOUMA*         CLEAR     48  41  76 N7        30.41R
PORT FOURCHON* SUNNY     54  45  71 N6          N/A

$$

LAZ041-044-053-054-271400-
SOUTHWEST LOUISIANA

CITY           SKY/WX    TMP DP  RH WIND       PRES   REMARKS
LAKE CHARLES   CLEAR     47  35  63 N8        30.44R
LAFAYETTE      CLEAR     47  35  63 N7        30.43R
PATTERSON      CLEAR     48  39  71 N5        30.44R
SALT POINT       N/A     53  43  68 N5        30.41R
NEW IBERIA     CLEAR     45  37  73 N7        30.43R
CHENAULT AIRPK CLEAR     46  36  66 N7        30.44R

$$

LAZ027-028-271400-
CENTRAL LOUISIANA

CITY           SKY/WX    TMP DP  RH WIND       PRES   REMARKS
FORT POLK      CLEAR     42  33  69 N9        30.44R
ALEXANDRIA INT CLEAR     39  32  76 N7        30.44R WCI  34
ALEXANDRIA     CLEAR     44  31  60 N6        30.45R

$$

LAZ001-002-271400-
NORTHWEST LOUISIANA

CITY           SKY/WX    TMP DP  RH WIND       PRES   REMARKS
SHREVEPORT     CLEAR     43  29  57 NW7       30.48R
BARKSDALE AFB  CLEAR     37  28  71 N8        30.49R WCI  31
DTN SHREVEPORT CLEAR     39  28  64 NW7       30.49R WCI  34

$$

LAZ014-016-271400-
NORTHEAST LOUISIANA

CITY           SKY/WX    TMP DP  RH WIND       PRES   REMARKS
MONROE         CLEAR     41  30  65 N13       30.48R
TALLULAH       CLEAR     38  31  76 NW6       30.45R WCI  33

$$




USA.gov is the U.S. government's official web portal to all federal, state and local government web resources and services.